North Myrtle Beach, SC

8:44 PM EST on December 16, 2017 (GMT -0500)
Grand Strand

Weather History for KCRE - August, 2013

Change the Weather History Date:

Monday, August 5, 2013

  Actual Average Record
Temperature  
Mean Temperature 76 °F 80 °F  
Max Temperature 84 °F 87 °F 104 °F (1954)
Min Temperature 68 °F 73 °F 63 °F (1950)
Degree Days  
Heating Degree Days 0 0  
Month to date heating degree days 0 0  
Since 1 June heating degree days 0 0  
Since 1 July heating degree days 0 0  
Cooling Degree Days 11 15  
Month to date cooling degree days 72 75  
Year to date cooling degree days 1108 1120  
Since 1 June cooling degree days 928 908  
Growing Degree Days 26 (Base 50)    
Moisture  
Dew Point 63 °F    
Average Humidity 71    
Maximum Humidity 97    
Minimum Humidity 44    
Precipitation  
Precipitation 0.00 in 0.21 in 0.58 in (2004)
Month to date precipitation 0.76 1.06  
Year to date precipitation 37.33 29.00  
Sea Level Pressure  
Sea Level Pressure 30.04 in    
Wind  
Wind Speed 7 mph (East)    
Max Wind Speed 15 mph    
Max Gust Speed 21 mph    
Visibility 10 miles    
Events      
T = Trace of Precipitation, MM = Missing Value Source: NWS Daily Summary

Daily Weather History Graph

Daily Weather History Graph

Search for Another Location

Airport or City:

Trip Planner

Search our weather history database for the weather conditions in past years. The results will help you decide how hot, cold, wet, or windy it might be!

Date:

Astronomy

Aug. 05, 2013 Rise Set
Actual Time 6:29 AM EDT 8:11 PM EDT
Civil Twilight 6:02 AM EDT 8:38 PM EDT
Nautical Twilight 5:30 AM EDT 9:10 PM EDT
Astronomical Twilight 4:55 AM EDT 9:45 PM EDT
Moon 5:22 AM EDT (8/5) 7:12 PM EDT (8/5)
Length of Visible Light 14h 35m
Length of Day
13h 41m
Waning Crescent, 1% of the Moon is Illuminated
Aug 5
Waning Crescent
Aug 6
New
Aug 14
First Quarter
Aug 20
Full
Aug 28
Last Quarter

Hourly Weather History & Observations

Time (EDT) Temp. Heat Index Dew Point Humidity Pressure Visibility Wind Dir Wind Speed Gust Speed Precip Events Conditions
12:53 AM 72.0 °F - 68.0 °F 87% 30.03 in 10.0 mi NE 3.5 mph - N/A   Clear
1:53 AM 71.1 °F - 66.9 °F 87% 30.01 in 10.0 mi NNE 3.5 mph - N/A   Clear
2:53 AM 70.0 °F - 66.9 °F 90% 30.01 in 10.0 mi NNE 3.5 mph - N/A   Clear
3:53 AM 69.1 °F - 66.9 °F 93% 29.99 in 10.0 mi NNE 3.5 mph - N/A   Clear
4:53 AM 69.1 °F - 66.0 °F 90% 30.00 in 10.0 mi NE 4.6 mph - N/A   Clear
5:53 AM 69.1 °F - 66.0 °F 90% 30.01 in 9.0 mi NE 5.8 mph - N/A   Clear
6:53 AM 70.0 °F - 68.0 °F 93% 30.03 in 9.0 mi NE 3.5 mph - N/A   Clear
7:53 AM 73.0 °F - 66.9 °F 81% 30.05 in 10.0 mi ENE 4.6 mph - N/A   Clear
8:53 AM 78.1 °F - 66.9 °F 68% 30.06 in 10.0 mi ENE 8.1 mph - N/A   Mostly Cloudy
9:53 AM 81.0 °F 82.5 °F 64.0 °F 56% 30.06 in 10.0 mi East 10.4 mph - N/A   Clear
10:53 AM 82.0 °F 82.4 °F 60.1 °F 47% 30.08 in 10.0 mi ESE 12.7 mph 20.7 mph N/A   Clear
11:53 AM 82.9 °F 83.2 °F 60.1 °F 46% 30.08 in 10.0 mi ESE 10.4 mph 18.4 mph N/A   Clear
12:53 PM 84.0 °F 84.4 °F 61.0 °F 46% 30.08 in 10.0 mi East 12.7 mph 17.3 mph N/A   Clear
1:53 PM 84.0 °F 84.4 °F 61.0 °F 46% 30.06 in 10.0 mi ESE 8.1 mph 17.3 mph N/A   Clear
2:53 PM 84.0 °F 84.5 °F 62.1 °F 47% 30.06 in 10.0 mi ESE 8.1 mph - N/A   Clear
3:53 PM 82.9 °F 83.3 °F 61.0 °F 47% 30.04 in 10.0 mi ESE 10.4 mph - N/A   Clear
4:53 PM 82.9 °F 83.3 °F 61.0 °F 47% 30.04 in 10.0 mi SE 8.1 mph - N/A   Clear
5:53 PM 82.0 °F 82.4 °F 60.1 °F 47% 30.03 in 10.0 mi SE 6.9 mph - N/A   Clear
6:53 PM 81.0 °F 81.7 °F 61.0 °F 50% 30.03 in 10.0 mi SSE 5.8 mph - N/A   Clear
7:53 PM 79.0 °F - 60.1 °F 52% 30.03 in 10.0 mi SE 3.5 mph - N/A   Clear
8:53 PM 79.0 °F - 60.1 °F 52% 30.05 in 10.0 mi SE 5.8 mph - N/A   Clear
9:53 PM 79.0 °F - 59.0 °F 50% 30.06 in 10.0 mi SSE 3.5 mph - N/A   Clear
10:53 PM 79.0 °F - 63.0 °F 58% 30.06 in 10.0 mi SSE 5.8 mph - N/A   Clear
11:53 PM 79.0 °F - 62.1 °F 56% 30.06 in 10.0 mi Variable 4.6 mph - N/A   Clear